Regional Weather Roundup
Issued by NWS

Home | Current Version | Previous Version | Graphics & Text | Print | Product List | Glossary On
Versions: 1 2 3 4 5 6 7 8 9 10 11 12 13 14 15 16 17 18 19 20 21 22 23 24 25 26 27
000
ASUS45 KCYS 280610
RWRWY

WYOMING REGIONAL WEATHER ROUNDUP
NATIONAL WEATHER SERVICE CHEYENNE WY
1200 AM MDT WED SEP 28 2016

NOTE:  "FAIR" INDICATES FEW OR NO CLOUDS BELOW 12,000 FEET
WITH NO SIGNIFICANT WEATHER AND/OR OBSTRUCTIONS TO VISIBILITY.

WYZ001-280700-
YELLOWSTONE NATIONAL PARK

CITY           SKY/WX    TMP DP  RH WIND       PRES   REMARKS
LK YELLOWSTONE   N/A     36  34  92 CALM      30.40S
6HR MIN TEMP:  36; 6HR MAX TEMP:  62;

W YELLOWSTONE  NOT AVBL

$$
WYZ002>013-054>058-071-098>099-280700-
NORTHERN WYOMING

CITY           SKY/WX    TMP DP  RH WIND       PRES   REMARKS
JACKSON        FAIR      45  39  81 NE8       30.30S
CODY           FAIR      59  42  53 SW3       30.24R
GREYBULL       FAIR      56  49  77 NE5       30.16R
6HR MIN TEMP:  56; 6HR MAX TEMP:  77;

WORLAND        FAIR      53  45  74 S9        30.18R
6HR MIN TEMP:  51; 6HR MAX TEMP:  77;

SHERIDAN       FAIR      50  43  77 SW6       30.16R
6HR MIN TEMP:  49; 6HR MAX TEMP:  77;

BUFFALO        FAIR      58  38  47 W8        30.23R
6HR MIN TEMP:  58; 6HR MAX TEMP:  75;

GILLETTE       FAIR      49  44  83 S7        30.17S
6HR MIN TEMP:  47; 6HR MAX TEMP:  75;

HULETT         FAIR      54  41  62 S9        30.17S
NEWCASTLE      FAIR      52  39  62 NE3       30.17R

$$
WYZ014>020-022>026-101>103-280700-
CENTRAL WYOMING

CITY           SKY/WX    TMP DP  RH WIND       PRES   REMARKS
BIG PINEY      FAIR      43  34  70 E7        30.33R
6HR MIN TEMP:  43; 6HR MAX TEMP:  72;

PINEDALE       FAIR      39  32  75 NW6       30.35R WCI  35
DUBOIS         FAIR      46  32  57 NW8       30.37R
LANDER         FAIR      54  39  57 S6        30.24S
6HR MIN TEMP:  54; 6HR MAX TEMP:  74; 6HR PCP: TRACE;

RIVERTON       FAIR      54  43  66 NW10      30.25R
6HR MIN TEMP:  54; 6HR MAX TEMP:  72; 6HR PCP: TRACE;

CASPER         FAIR      46  40  79 N8        30.25R
6HR MIN TEMP:  46; 6HR MAX TEMP:  75;

DOUGLAS        FAIR      48  37  65 CALM      30.23R
6HR MIN TEMP:  48; 6HR MAX TEMP:  77;


$$
WYZ021-027>030-104>119-280700-
SOUTHERN WYOMING

CITY           SKY/WX    TMP DP  RH WIND       PRES   REMARKS
EVANSTON       FAIR      55  37  50 SE3       30.32S
6HR MIN TEMP:  53; 6HR MAX TEMP:  72;

FORT BRIDGER   FAIR      55  34  45 W8        30.34S
ROCK SPRINGS   FAIR      54  37  52 S7        30.30S
6HR MIN TEMP:  54; 6HR MAX TEMP:  70; 6HR PCP: TRACE;

DIXON          FAIR      48  35  62 NE3       30.33S
RAWLINS        FAIR      43  29  57 NW7       30.32R
6HR MIN TEMP:  41; 6HR MAX TEMP:  71;

SARATOGA       FAIR      41  32  70 SE9       30.34R
LARAMIE        FAIR      41  34  76 S8        30.35R
6HR MIN TEMP:  41; 6HR MAX TEMP:  69;

CHEYENNE       FAIR      51  29  42 NW7       30.28R
6HR MIN TEMP:  49; 6HR MAX TEMP:  76;

TORRINGTON     FAIR      52  41  66 NW8       30.16R
6HR MIN TEMP:  52; 6HR MAX TEMP:  82;

PINE BLUFFS    FAIR      45  34  65 W6        30.22S

$$




USA.gov is the U.S. government's official web portal to all federal, state and local government web resources and services.